TimeAKST,TemperatureF,Dew PointF,Humidity,Sea Level PressureIn,VisibilityMPH,Wind Direction,Wind SpeedMPH,Gust SpeedMPH,PrecipitationIn,Events,Conditions,WindDirDegrees,DateUTC
12:09 AM,39.2,37.4,93,30.17,10.0,South,3.5,-,N/A,,Overcast,180,2013-02-09 09:09:00
12:20 AM,39.2,37.4,93,30.17,10.0,Calm,Calm,-,N/A,,Overcast,0,2013-02-09 09:20:00
12:53 AM,39.0,37.9,96,30.17,10.0,Calm,Calm,-,N/A,,Overcast,0,2013-02-09 09:53:00
1:53 AM,37.9,37.9,100,30.19,3.0,Calm,Calm,-,N/A,,Overcast,0,2013-02-09 10:53:00
2:58 AM,37.4,37.4,100,30.17,2.5,Calm,Calm,-,N/A,,Overcast,0,2013-02-09 11:58:00
3:16 AM,37.4,37.4,100,30.17,8.0,Calm,Calm,-,N/A,,Overcast,0,2013-02-09 12:16:00
3:25 AM,37.4,37.4,100,30.17,9.0,Calm,Calm,-,N/A,,Overcast,0,2013-02-09 12:25:00
3:53 AM,37.9,37.9,100,30.18,10.0,Calm,Calm,-,N/A,,Overcast,0,2013-02-09 12:53:00
4:53 AM,37.0,37.0,100,30.18,10.0,Calm,Calm,-,N/A,,Overcast,0,2013-02-09 13:53:00
5:53 AM,37.0,37.0,100,30.19,10.0,Calm,Calm,-,N/A,,Overcast,0,2013-02-09 14:53:00
6:53 AM,37.9,37.0,97,30.20,10.0,Calm,Calm,-,N/A,,Overcast,0,2013-02-09 15:53:00
7:51 AM,37.4,37.4,100,30.20,10.0,Calm,Calm,-,N/A,,Overcast,0,2013-02-09 16:51:00
7:53 AM,37.9,37.0,97,30.21,10.0,Calm,Calm,-,N/A,,Overcast,0,2013-02-09 16:53:00
8:53 AM,39.0,37.0,93,30.21,10.0,Calm,Calm,-,N/A,,Overcast,0,2013-02-09 17:53:00
9:15 AM,39.2,37.4,93,30.21,10.0,Calm,Calm,-,0.00,Rain,Light Rain,0,2013-02-09 18:15:00
9:23 AM,39.2,37.4,93,30.21,10.0,NNE,3.5,-,0.00,,Overcast,30,2013-02-09 18:23:00
9:53 AM,39.0,37.9,96,30.22,7.0,Calm,Calm,-,0.01,Rain,Light Rain,0,2013-02-09 18:53:00
10:53 AM,41.0,39.9,96,30.22,10.0,Calm,Calm,-,0.00,,Overcast,0,2013-02-09 19:53:00
11:53 AM,43.0,41.0,93,30.22,10.0,Calm,Calm,-,N/A,,Overcast,0,2013-02-09 20:53:00
12:53 PM,44.1,39.9,85,30.22,10.0,Variable,3.5,-,0.01,,Overcast,0,2013-02-09 21:53:00
1:53 PM,45.0,41.0,86,30.21,10.0,Variable,4.6,-,N/A,,Overcast,0,2013-02-09 22:53:00
2:53 PM,45.0,41.0,86,30.20,10.0,Variable,4.6,-,0.00,,Overcast,0,2013-02-09 23:53:00
3:05 PM,44.6,41.0,87,30.20,10.0,Variable,3.5,-,N/A,,Overcast,0,2013-02-10 00:05:00
3:33 PM,44.6,42.8,93,30.19,10.0,Variable,3.5,-,N/A,,Overcast,0,2013-02-10 00:33:00
3:53 PM,44.1,42.1,93,30.20,10.0,South,3.5,-,0.00,Rain,Light Rain,190,2013-02-10 00:53:00
4:53 PM,45.0,41.0,86,30.20,10.0,Calm,Calm,-,0.00,,Overcast,0,2013-02-10 01:53:00
5:53 PM,44.1,42.1,93,30.20,10.0,Variable,4.6,-,0.00,,Overcast,0,2013-02-10 02:53:00
6:29 PM,42.8,42.8,100,30.19,7.0,SSE,6.9,-,N/A,,Overcast,160,2013-02-10 03:29:00
6:37 PM,42.8,42.8,100,30.19,7.0,Variable,4.6,-,N/A,,Overcast,0,2013-02-10 03:37:00
7:53 PM,43.0,42.1,97,30.18,7.0,Variable,5.8,-,N/A,,Overcast,0,2013-02-10 04:53:00
8:53 PM,44.1,42.1,93,30.18,10.0,SSE,5.8,-,0.00,,Overcast,160,2013-02-10 05:53:00
9:53 PM,44.1,42.1,93,30.19,10.0,SSW,6.9,-,0.00,,Mostly Cloudy,200,2013-02-10 06:53:00
10:40 PM,44.6,39.2,81,30.18,10.0,SSW,5.8,-,0.00,,Overcast,200,2013-02-10 07:40:00
10:53 PM,44.1,37.9,79,30.19,10.0,SSW,5.8,-,0.00,,Overcast,200,2013-02-10 07:53:00
11:53 PM,44.1,37.9,79,30.17,10.0,South,5.8,-,N/A,,Overcast,170,2013-02-10 08:53:00